Location: Krakow
(50.0830°N, 19.9170°E)
Time: 18:16:40
(UTC+01:00)

Vanguard 1 Rocket - Pass Details

Date: 17 December 2025
Orbit: 651 x 4216 km, 34.3° (Epoch: 19 January)

Event Time Altitude Azimuth Distance (km) Brightness Sun altitude
Rises 06:18:32 0° 222° (SW) 3,014 9.9 -11.3°
Reaches altitude 10° 06:22:39 10° 184° (S) 2,052 9.5 -10.7°
Maximum altitude 06:23:50 11° 168° (SSE) 2,018 9.7 -10.6°
Drops below altitude 10° 06:25:04 10° 152° (SSE) 2,125 10.1 -10.4°
Sets 06:29:41 0° 116° (ESE) 3,381 12.8 -9.7°
